Regional Weather Roundup
Issued by NWS

Home | Current Version | Previous Version | Graphics & Text | Print | Product List | Glossary On
Versions: 1 2 3 4 5 6 7 8 9 10 11 12 13 14 15 16 17 18 19 20 21 22 23 24 25 26 27 28 29 30 31 32 33 34 35 36 37 38 39 40 41 42 43 44 45 46 47 48 49 50
000
ASUS43 KFSD 280402
RWRSD

WEATHER ROUNDUP FOR SOUTH DAKOTA
NATIONAL WEATHER SERVICE SIOUX FALLS SD
1000 PM CST FRI FEB 27 2015

NOTE: "FAIR" INDICATES FEW OR NO CLOUDS BELOW 12,000 FEET WITH NO
SIGNIFICANT WEATHER AND/OR OBSTRUCTIONS TO VISIBILITY.


SDZ001>005-009-010-012>017-280500-
NORTHWEST AND NORTH CENTRAL SOUTH DAKOTA

CITY           SKY/WX    TMP DP  RH WIND       PRES   REMARKS
BUFFALO          N/A     16   8  71 SE3       29.92S
FAITH            N/A     14   4  64 S14       30.06S WCI  -1
MOBRIDGE       CLEAR     11   0  61 SE10      30.17S WCI  -3
$$

SDZ012>016-024>037-041>051-057-063-072>074-280500-
SOUTHWEST AND SOUTH CENTRAL SOUTH DAKOTA

CITY           SKY/WX    TMP DP  RH WIND       PRES   REMARKS
RAPID CTY ARPT PTCLDY    16   9  74 S12       30.02R WCI   3
PIERRE         CLEAR     13  -2  51 E10       30.21R WCI   0
CUSTER         CLOUDY     9   4  80 SW6       29.87S HAZE    WCI  -1
ELLSWORTH AFB  PTCLDY    18   9  67 S12       30.00R WCI   6
PHILIP         MOCLDY    18   5  57 S8        30.13S WCI   8
PINE RIDGE     MOCLDY    19   7  59 S17G24    30.05S WCI   4
WINNER         FAIR      18  -4  37 S14       30.23S WCI   4
$$

SDZ004>011-016>023-039-040-280500-
NORTHEAST SOUTH DAKOTA

CITY           SKY/WX    TMP DP  RH WIND       PRES   REMARKS
ABERDEEN       PTCLDY     9   1  70 S16       30.33S WCI  -8
WATERTOWN      CLEAR      3  -3  76 S10       30.35S WCI -12
SISSETON         N/A      3  -4  72 S10       30.38F WCI -12
$$

SDZ017-020-022-023-036>040-048>070-280500-
SOUTHEAST SOUTH DAKOTA

CITY           SKY/WX    TMP DP  RH WIND       PRES   REMARKS
SIOUX FALLS    CLEAR      8  -1  66 S12       30.43S WCI  -7
HURON          CLEAR      9   2  73 SE15      30.35S WCI  -8
MITCHELL       CLEAR     12   4  70 S15       30.39S WCI  -4
YANKTON        CLEAR     12   1  62 SE10      30.45R WCI  -1
$$

ABBREVIATIONS USED IN REMARKS
   TC - TEMPERATURE IN CELSIUS
  WCI - WIND CHILL INDEX
   HX - HEAT INDEX
  VSB - VISIBILITY



USA.gov is the U.S. government's official web portal to all federal, state and local government web resources and services.